Showing default

DIAPASON (D1-A), 2016

Orbit data source: Space-Track

DIAPASON (D1-A), 2016 is a payload satellite owned by CNES (FR) in LEO that was launched on Thu, 17 Feb 1966 UTC via a DIAMANT A launch vehicle from the Hamma Guira Space Track Range (HGSTR). Payload-class satellites include a variety of spacecraft equipped with specific instruments for various scientific and technological missions. These include communications satellites like Starlink; space stations such as the ISS; scientific satellites like the Hubble; Earth observation satellites from companies like Planet Labs, Umbra, and HawkEye 360; GPS; miniature CubeSats for education and research; and military/defense satellites.

Loading next visibility...
Identifier
2016, 1966-013A
Orbit
LEO
Country
Flag of FRFR
Related business
Manufacturer
CNES
Mission
Spacecraft
Bus & Motor
D-1, Unknown motor
Mass
19 kg wet, 19 kg dry
Launch date (UTC)
1966-02-17 (60 years ago)
Launch vehicle
DIAMANT A
Launch site
Hamma Guira Space Track Range (HGSTR)
Object type
Payload
Rocket body
Debris
Shape & HBR
Unknown
Radar Cross Section
Large (>1 m²)

Expand to show TLE details & history
Last TLE update: 15 hours ago

TLE from 15 hours ago
0 DIAPASON (D1-A)
1 02016U 66013A   25350.30217917  .00001708  00000-0  48465-3 0  9996
2 02016  34.0944  22.9217 1159390 337.3018  18.0089 12.66202775717257
Epoch: 2025-12-16T07:15Z
TLE epoch observation values (Epoch: 2025-12-16T07:15:08.280Z)
Latitude
0.00001°
Longitude
-171.05112°
Altitude
551.15 km
Speed
7.989 km/s
True Right ascension
01h 31m 41s
True Declination
0° 00' 00"
Sunlit
Object was in full shadow at epoch
Visualization orbit readout
Latitude
Unknown
Longitude
Unknown
Altitude
Unknown
Speed
Unknown
Apparent Right ascension
Unknown
Apparent Declination
Unknown
Sunlit
N/A
Visualization observer readout
Local Sidereal Time
20:59:24
Azimuth
Unknown
Elevation
Unknown
Doppler factor
Unknown
Orbital elements
Apogee altitude
2,302.356 km
Perigee altitude
498.66 km
Semi-major axis
7,778.645 km
Eccentricity
0.11594
Inclination
34.0944°
RAAN
22.9217°
Arg. of periapsis
337.3018°
True anomaly
22.7624°
Mean anomaly
18.0089°
Eccentric anomaly
20.31518°
Mean motion
3.16364 °/min
Orbital period
113.79 mins
BSTAR
0.00048465
Loading maneuver chart data...
Computing Atmospheric mass density...

Documentation

Showing up to 5 results
|